Location: Azul
(36.7830°S, 59.8500°W)
Time: 20:47:24
(UTC-03:00)

RS-44 - Pass Details

Date: 18 September 2024
Orbit: 1174 x 1511 km, 82.5° (Epoch: 11 October)

Event Time Altitude Azimuth Distance (km) Brightness Sun altitude
Rises 02:01:06 0° 176° (S) 4,409 ? -51.6°
Reaches altitude 10° 02:04:30 10° 163° (SSE) 3,483 ? -51.3°
Enters shadow 02:10:09 26° 120° (ESE) 2,544 ? -50.7°
